Location: San Gennaro Vesuviano
(40.8833°N, 14.5333°E)
Time: 10:21:21
(UTC+00:00)

ATLAS 3B R/B - Pass Details

Date: 22 April 2021
Orbit: 1006 x 1189 km, 63.8° (Epoch: 21 April)

Event Time Altitude Azimuth Distance (km) Brightness Sun altitude
Rises 19:23:49 0° 321° (NW) 3,912 7.1 -16.9°
Reaches altitude 10° 19:26:31 10° 317° (NW) 2,978 6.3 -17.4°
Maximum altitude 19:33:20 52° 244° (WSW) 1,399 3.4 -18.4°
Enters shadow 19:39:09 16° 173° (S) 2,662 4.4 -19.3°
